Regional Weather Roundup
Issued by NWS

Home | Current Version | Previous Version | Graphics & Text | Print | Product List | Glossary On
Versions: 1 2 3 4 5 6 7 8 9 10 11 12 13 14 15 16 17 18 19 20 21 22 23 24 25 26 27 28 29 30 31 32 33 34 35 36 37 38 39 40 41 42 43 44 45 46 47 48 49 50
465
ASUS43 KDMX 101401
RWRIA

WEATHER ROUNDUP FOR IOWA
NATIONAL WEATHER SERVICE DES MOINES IA
800 AM CST SAT DEC 10 2016

NOTE: "FAIR" INDICATES FEW OR NO CLOUDS BELOW 12,000 FEET WITH NO
SIGNIFICANT WEATHER AND/OR OBSTRUCTIONS TO VISIBILITY.

* - THESE STATIONS ARE NOT NWS STATIONS...THUS NOT UNDER NWS
QUALITY CONTROL.  THEY ALSO DO NOT REPORT WEATHER SUCH
AS PRECIPITATION OR FOG.

IAZ001>003-012>014-020>022-031>034-043>046-101500-
   NORTHWEST IOWA

CITY           SKY/WX    TMP DP  RH WIND       PRES   REMARKS
CARROLL *      CLOUDY    21  16  79 E7        30.41F WCI  13
CHEROKEE *     LGT SNOW  15  13  92 E12       30.40F WCI   2
DENISON *      LGT SNOW  21  18  86 E6        30.38F WCI  14
LE MARS *      LGT SNOW  18  14  86 E8        30.39F WCI   7
ORANGE CITY *  LGT SNOW  14  12  92 CALM      30.36F
SHELDON *      CLOUDY    10   9  92 E13       30.36F WCI  -5
SIOUX CITY     LGT SNOW  21  15  78 E7        30.39F WCI  12
SPENCER        LGT SNOW  10   6  84 E9        30.42F FOG     WCI  -3
STORM LAKE *   FLURRIES  14  12  92 E13       30.39F WCI   0
$$

IAZ055>058-069>071-079>083-090>094-101500-
   SOUTHWEST IOWA

CITY           SKY/WX    TMP DP  RH WIND       PRES   REMARKS
ATLANTIC *     LGT SNOW  21  19  93 CALM      30.42R VSB 3/4
AUDUBON *      LGT SNOW  21  16  79 SE5       30.40S WCI  15
CLARINDA *     CLOUDY    25  18  74 S7        30.43S WCI  17
COUNCIL BLFS * LGT SNOW  21  19  93 E6        30.38F WCI  14
CRESTON *      LGT SNOW  21  18  86 SE9       30.41F VSB 3/4 WCI  11
HARLAN  *      LGT SNOW  21  19  93 SE5       30.43F WCI  15
LAMONI         CLOUDY    23  12  62 SE5       30.42F WCI  17
RED OAK *      CLOUDY    25  16  68 MISG      30.41S
SHENANDOAH *   CLOUDY    25  18  74 SE7       30.42S WCI  17
$$

IAZ047>049-059>061-072>074-084-101500-
   CENTRAL IOWA

CITY           SKY/WX    TMP DP  RH WIND       PRES   REMARKS
AMES           CLOUDY    21  14  74 E3        30.45F
ANKENY *       CLOUDY    21  14  73 SE8       30.46F WCI  12
BOONE *        CLOUDY    19  12  73 E7        30.43F WCI  10
CHARITON *     CLOUDY    23  16  74 SE6       30.45S WCI  16
DES MOINES     CLOUDY    23  13  65 SE8       30.44F WCI  14
GRINNELL*      CLOUDY    21  15  78 CALM      30.48S
KNOXVILLE *    CLOUDY    23  12  63 SE5       30.46S WCI  17
MARSHALLTOWN   CLOUDY    20  13  74 CALM      30.47F
NEWTON *       CLOUDY    21  16  79 SE5       30.46F WCI  15
PELLA *        CLOUDY    23  15  71 SE3       30.49S
PERRY *        CLOUDY    22  17  79 SE6       30.44F WCI  15
$$

IAZ004>006-015-016-023>025-035-036-101500-
   NORTH CENTRAL IOWA

CITY           SKY/WX    TMP DP  RH WIND       PRES   REMARKS
ALGONA *       FLURRIES  10   7  85 NE8       30.44F WCI  -1
CLARION *      CLOUDY    14  12  92 E7        30.45F WCI   4
ESTHERVILLE    CLOUDY     7   4  87 E7        30.43F WCI  -5
FORT DODGE *   CLOUDY    16  10  79 NE8       30.45F WCI   5
MASON CITY     CLOUDY    11   6  81 NE3       30.47F
WEBSTER CITY * CLOUDY    19  16  86 E8        30.43F WCI   9
IOWA FALLS *   CLOUDY    19  15  84 E3        30.46F
$$

IAZ007>011-017>019-026>030-037>042-050>054-066-101500-
   NORTHEAST IOWA

CITY           SKY/WX    TMP DP  RH WIND       PRES   REMARKS
CEDAR RAPIDS   CLOUDY    19  17  92 CALM      30.48F
CHARLES CITY * CLOUDY    12   7  79 N6        30.47F WCI   3
CLINTON *      CLOUDY    19  16  88 W5        30.53R WCI  12
DECORAH *      CLOUDY    10   5  79 CALM      30.46S
DUBUQUE        CLOUDY    15  13  91 CALM      30.48F
MONTICELLO *   CLOUDY    18  14  86 CALM      30.50S
OELWEIN *      CLOUDY    16  14  93 NE6       30.48F WCI   7
WATERLOO       CLOUDY    18  13  80 N3        30.48F
$$

IAZ064-065-067-068-078-101500-
   EAST CENTRAL IOWA

CITY           SKY/WX    TMP DP  RH WIND       PRES   REMARKS
DAVENPORT      CLOUDY    21  14  74 SW5       30.52S WCI  15
IOWA CITY      CLOUDY    22  15  75 CALM      30.53F
MUSCATINE *    CLOUDY    23  16  74 S6        30.54S WCI  16
QUAD CITIES    CLOUDY    22  14  71 SW5       30.53S WCI  16
$$

IAZ062-063-075>077-085>089-095>099-101500-
   SOUTHEAST IOWA

CITY           SKY/WX    TMP DP  RH WIND       PRES   REMARKS
BURLINGTON     CLOUDY    23  17  78 S3        30.52F
FAIRFIELD *    CLOUDY    23  14  68 SE6       30.50F WCI  16
FORT MADISON * CLOUDY    23  16  74 CALM      30.53S
KEOKUK *       CLOUDY    25  16  68 CALM      30.53S
OSKALOOSA *    CLOUDY    22  17  80 SE6       30.49F WCI  15
CENTERVILLE *  CLOUDY    23  14  68 CALM      30.47F
OTTUMWA        CLOUDY    23  13  65 SE7       30.47F WCI  15
WASHINGTON *   CLOUDY    21  18  86 CALM      30.52S
$$

ABBREVIATIONS USED IN REMARKS
   TC - TEMPERATURES IN CELSIUS
  WCI - WIND CHILL INDEX
   HX - HEAT INDEX
  VSB - VISIBILITY
$$





USA.gov is the U.S. government's official web portal to all federal, state and local government web resources and services.